Temp
-13 -13 -13 -13 -13 -13 -13 -12 -12 -12 -12 -11 -11 -11 -11 -11 -11 -10 -10 -10 -10 -10 -10 -10 -10 -10 -10 -10 -10 -10 -10 -10 -10 -10 -10 -11 -11 -11 -11 -12 -12 -11 -11
-14 -13 -14 -14 -13 -13 -14 -13 -13 -12 -12 -12 -12 -12 -12 -11 -11 -11 -11 -11 -11 -11 -11 -11 -11 -11 -11 -11 -10 -10 -10 -10 -11 -11 -11 -11 -11 -11 -11 -11 -12 -12 -12
-14 -14 -14 -14 -14 -14 -13 -13 -13 -13 -12 -12 -12 -12 -12 -12 -12 -12 -11 -12 -12 -12 -11 -11 -11 -11 -11 -11 -11 -11 -11 -11 -11 -11 -11 -11 -11 -11 -12 -12 -12 -12 -12
-14 -14 -14 -14 -14 -14 -14 -14 -13 -13 -13 -13 -12 -12 -12 -12 -12 -12 -12 -12 -12 -12 -12 -12 -11 -11 -11 -11 -11 -11 -11 -11 -11 -11 -11 -12 -11 -11 -12 -12 -12 -12 -12
-14 -14 -14 -15 -14 -14 -14 -14 -14 -13 -13 -13 -13 -13 -13 -13 -13 -13 -13 -13 -13 -12 -12 -12 -12 -11 -12 -11 -11 -11 -12 -11 -11 -11 -12 -12 -12 -12 -12 -12 -12 -12 -12
-15 -15 -13 -14 -14 -15 -14 -14 -14 -14 -14 -14 -13 -13 -13 -13 -13 -13 -13 -13 -13 -12 -12 -12 -12 -12 -12 -12 -12 -12 -12 -12 -12 -12 -12 -12 -12 -13 -13 -12 -13 -13 -12
-16 -15 -14 -14 -15 -15 -15 -15 -14 -14 -14 -14 -14 -14 -14 -14 -14 -14 -13 -13 -13 -12 -13 -12 -12 -12 -12 -12 -12 -12 -12 -12 -13 -13 -12 -12 -13 -13 -13 -13 -13 -13 -13
-15 -15 -15 -13 -14 -15 -15 -15 -15 -15 -14 -14 -14 -14 -14 -14 -14 -14 -13 -13 -12 -12 -13 -13 -13 -13 -13 -13 -13 -13 -13 -13 -13 -12 -13 -13 -13 -13 -13 -13 -13 -13 -13
-16 -15 -14 -14 -14 -15 -15 -14 -14 -15 -14 -15 -14 -15 -14 -14 -14 -14 -14 -14 -13 -13 -13 -13 -13 -13 -13 -13 -13 -13 -13 -13 -13 -13 -13 -13 -13 -13 -13 -13 -13 -13 -13
-17 -16 -16 -15 -15 -15 -15 -15 -15 -15 -15 -15 -15 -15 -15 -14 -14 -14 -14 -14 -14 -14 -14 -14 -14 -14 -14 -13 -13 -13 -13 -13 -14 -13 -13 -13 -13 -13 -14 -14 -13 -14 -14
-17 -17 -16 -16 -15 -15 -15 -15 -15 -15 -15 -15 -14 -14 -14 -14 -14 -15 -14 -14 -14 -14 -14 -14 -14 -14 -14 -14 -14 -14 -14 -14 -14 -14 -14 -14 -14 -14 -14 -14 -14 -14 -14
-17 -17 -17 -17 -16 -16 -16 -15 -15 -15 -14 -15 -14 -14 -15 -15 -14 -14 -15 -15 -14 -14 -14 -14 -14 -14 -14 -14 -14 -15 -14 -14 -14 -14 -14 -14 -14 -14 -14 -14 -14 -15 -15
-17 -17 -17 -17 -17 -17 -16 -16 -15 -14 -15 -15 -15 -15 -15 -15 -14 -14 -15 -14 -14 -14 -15 -15 -15 -15 -15 -15 -15 -15 -15 -14 -14 -14 -14 -14 -14 -14 -14 -14 -15 -15 -15
-17 -17 -17 -17 -17 -17 -16 -16 -16 -16 -16 -16 -15 -15 -15 -16 -16 -16 -16 -16 -16 -16 -16 -15 -16 -16 -15 -15 -15 -15 -15 -15 -15 -15 -15 -15 -15 -15 -15 -15 -16 -16 -16
-17 -17 -17 -17 -17 -17 -17 -16 -16 -16 -17 -17 -17 -17 -18 -18 -18 -17 -17 -17 -17 -17 -17 -16 -16 -16 -16 -15 -15 -15 -15 -16 -15 -15 -15 -16 -16 -16 -16 -16 -16 -16 -16
-17 -18 -17 -17 -17 -17 -17 -17 -17 -17 -17 -17 -17 -18 -18 -18 -18 -18 -18 -18 -18 -18 -17 -17 -17 -17 -17 -16 -16 -16 -16 -16 -16 -16 -16 -16 -17 -17 -16 -16 -17 -17 -17
-17 -18 -18 -17 -17 -17 -17 -17 -17 -17 -17 -17 -17 -18 -18 -18 -18 -18 -18 -18 -18 -18 -17 -17 -17 -18 -17 -17 -17 -17 -17 -17 -17 -17 -17 -18 -17 -17 -17 -17 -17 -17 -17
-18 -18 -18 -17 -17 -17 -17 -17 -17 -18 -18 -18 -18 -18 -18 -18 -18 -18 -18 -18 -18 -18 -17 -17 -17 -17 -18 -18 -18 -18 -18 -18 -18 -18 -18 -17 -17 -18 -18 -18 -18 -18 -18
-17 -18 -18 -17 -17 -17 -18 -18 -17 -18 -18 -18 -18 -19 -19 -18 -19 -19 -18 -18 -18 -18 -18 -18 -18 -18 -17 -18 -18 -18 -18 -19 -18 -18 -18 -18 -18 -18 -18 -18 -18 -18 -18
-18 -18 -18 -18 -18 -18 -18 -18 -18 -18 -19 -19 -19 -19 -19 -19 -19 -19 -18 -18 -19 -19 -19 -19 -19 -19 -19 -19 -19 -19 -19 -19 -19 -18 -18 -19 -19 -19 -18 -19 -19 -19 -18
-19 -19 -19 -19 -19 -19 -19 -18 -18 -19 -19 -19 -19 -19 -19 -19 -20 -19 -19 -19 -19 -19 -19 -19 -19 -19 -19 -19 -19 -19 -19 -19 -18 -19 -19 -19 -19 -19 -19 -19 -19 -19 -19
-19 -19 -19 -19 -20 -19 -19 -19 -19 -19 -19 -19 -19 -19 -19 -19 -20 -19 -19 -19 -19 -19 -19 -19 -19 -19 -19 -19 -19 -19 -19 -19 -19 -19 -19 -19 -19 -19 -19 -19 -19 -19 -19
-20 -20 -20 -20 -20 -19 -19 -19 -19 -19 -19 -19 -19 -19 -19 -19 -19 -19 -19 -19 -19 -19 -19 -19 -19 -19 -19 -19 -19 -19 -19 -19 -19 -19 -19 -19 -19 -19 -19 -19 -19 -19 -19
-20 -20 -20 -20 -20 -20 -20 -19 -19 -19 -19 -19 -19 -19 -19 -20 -19 -20 -20 -20 -19 -19 -19 -19 -19 -19 -19 -19 -19 -19 -19 -19 -19 -20 -20 -20 -19 -19 -19 -19 -19 -19 -19
-20 -20 -20 -20 -20 -20 -20 -20 -19 -19 -19 -19 -19 -19 -20 -20 -20 -19 -20 -20 -19 -19 -19 -20 -19 -19 -19 -19 -19 -19 -19 -19 -19 -19 -19 -20 -20 -20 -19 -19 -19 -19 -19
-20 -20 -20 -20 -20 -20 -20 -20 -20 -20 -20 -20 -20 -20 -20 -20 -20 -20 -20 -20 -20 -20 -19 -20 -19 -20 -20 -19 -19 -19 -19 -19 -19 -19 -19 -20 -20 -20 -20 -20 -20 -19 -19
Height
5772 5782 5787 5793 5799 5803 5810 5812 5818 5822 5824 5828 5830 5832 5835 5838 5840 5842 5844 5846 5848 5849 5850 5849 5850 5849 5849 5848 5848 5847 5847 5845 5843 5842 5840 5838 5834 5831 5829 5826 5823 5817 5814
5766 5774 5780 5786 5792 5798 5801 5806 5810 5816 5818 5821 5822 5825 5829 5832 5834 5836 5837 5840 5840 5841 5842 5842 5842 5842 5842 5841 5841 5839 5839 5837 5835 5833 5831 5831 5829 5824 5821 5817 5813 5809 5806
5757 5765 5771 5778 5783 5790 5796 5800 5804 5808 5811 5813 5818 5820 5821 5823 5825 5828 5830 5831 5832 5833 5834 5834 5834 5834 5834 5834 5832 5831 5830 5829 5828 5824 5822 5820 5818 5816 5812 5809 5805 5802 5798
5750 5755 5764 5770 5776 5782 5789 5793 5797 5801 5803 5807 5810 5811 5814 5816 5818 5818 5821 5822 5823 5825 5825 5825 5826 5826 5825 5825 5824 5822 5821 5819 5818 5815 5813 5811 5808 5805 5803 5799 5796 5792 5789
5744 5746 5756 5760 5766 5774 5779 5783 5788 5792 5795 5799 5801 5803 5806 5809 5810 5811 5812 5814 5815 5816 5816 5816 5817 5817 5816 5816 5815 5813 5811 5809 5808 5806 5804 5801 5798 5796 5793 5790 5787 5784 5781
5737 5739 5748 5753 5758 5765 5769 5774 5778 5782 5785 5789 5793 5795 5797 5799 5801 5802 5803 5805 5807 5807 5807 5807 5807 5807 5807 5806 5805 5804 5802 5800 5799 5796 5794 5792 5789 5787 5784 5781 5779 5776 5772
5730 5733 5738 5746 5751 5756 5760 5764 5768 5773 5776 5779 5783 5785 5787 5788 5790 5792 5793 5794 5796 5797 5797 5797 5797 5797 5796 5795 5794 5793 5792 5791 5788 5787 5784 5781 5779 5776 5774 5772 5770 5768 5763
5723 5727 5728 5738 5741 5745 5750 5754 5758 5762 5765 5769 5772 5774 5777 5779 5781 5782 5783 5785 5785 5786 5785 5785 5785 5785 5785 5784 5784 5783 5781 5779 5778 5776 5773 5771 5769 5767 5765 5764 5760 5757 5754
5713 5718 5720 5730 5731 5735 5741 5744 5749 5753 5756 5758 5761 5764 5766 5768 5769 5771 5772 5773 5774 5774 5775 5774 5774 5774 5773 5773 5772 5771 5770 5769 5767 5765 5762 5761 5759 5757 5755 5753 5750 5747 5744
5706 5711 5710 5718 5724 5726 5730 5734 5738 5741 5745 5747 5750 5752 5754 5755 5757 5759 5760 5760 5761 5762 5762 5762 5762 5763 5762 5761 5761 5760 5758 5758 5756 5754 5753 5751 5749 5747 5745 5743 5740 5737 5734
5701 5703 5704 5708 5715 5716 5719 5723 5726 5729 5733 5736 5738 5740 5741 5743 5745 5746 5747 5748 5749 5750 5750 5751 5751 5751 5750 5750 5749 5748 5747 5746 5744 5743 5742 5740 5739 5737 5735 5733 5730 5727 5725
5698 5698 5698 5700 5703 5707 5709 5712 5717 5718 5722 5724 5726 5728 5730 5731 5732 5734 5734 5736 5737 5737 5738 5739 5738 5738 5738 5738 5737 5736 5735 5735 5734 5732 5731 5730 5728 5727 5724 5722 5720 5717 5715
5694 5695 5695 5695 5697 5699 5701 5703 5705 5707 5711 5712 5713 5714 5716 5719 5719 5719 5719 5721 5723 5724 5725 5726 5726 5725 5724 5724 5724 5724 5724 5723 5723 5721 5719 5718 5717 5715 5713 5712 5709 5709 5706
5688 5690 5691 5691 5692 5692 5694 5696 5698 5699 5699 5699 5700 5702 5702 5703 5705 5706 5707 5708 5710 5711 5712 5712 5712 5712 5712 5712 5712 5712 5712 5712 5710 5709 5708 5707 5706 5704 5702 5702 5700 5699 5697
5681 5683 5684 5686 5686 5687 5687 5688 5689 5689 5689 5689 5690 5691 5692 5693 5694 5695 5695 5696 5697 5699 5699 5700 5699 5699 5699 5698 5699 5699 5699 5699 5699 5698 5697 5696 5694 5694 5693 5691 5691 5690 5688
5674 5676 5676 5677 5679 5679 5680 5681 5681 5682 5682 5681 5681 5681 5682 5683 5684 5685 5686 5686 5687 5687 5687 5686 5686 5686 5686 5686 5686 5686 5686 5687 5687 5687 5685 5685 5685 5683 5683 5683 5682 5681 5680
5665 5666 5669 5669 5670 5671 5672 5673 5673 5672 5672 5671 5671 5672 5673 5673 5673 5674 5675 5675 5675 5674 5674 5674 5674 5674 5673 5673 5674 5674 5674 5675 5675 5675 5675 5674 5674 5673 5674 5675 5674 5673 5672
5655 5656 5659 5659 5660 5662 5662 5663 5664 5664 5663 5663 5663 5663 5664 5664 5664 5664 5664 5663 5663 5662 5661 5661 5661 5662 5661 5661 5662 5662 5663 5664 5663 5664 5665 5665 5665 5665 5665 5666 5666 5665 5665
5644 5645 5646 5648 5650 5652 5653 5654 5654 5654 5655 5655 5655 5655 5654 5654 5654 5654 5654 5653 5653 5652 5651 5649 5649 5649 5649 5650 5650 5652 5652 5652 5653 5655 5655 5656 5656 5657 5657 5658 5658 5657 5657
5633 5634 5636 5637 5639 5641 5643 5644 5645 5645 5645 5645 5645 5645 5646 5645 5645 5644 5643 5643 5642 5642 5641 5640 5641 5641 5640 5640 5640 5641 5642 5643 5644 5646 5646 5648 5648 5649 5650 5650 5650 5649 5649
5625 5625 5626 5628 5630 5631 5632 5634 5634 5636 5637 5637 5636 5637 5637 5637 5637 5636 5635 5635 5633 5633 5633 5633 5633 5632 5632 5631 5632 5632 5633 5635 5636 5637 5639 5640 5641 5642 5642 5642 5642 5641 5640
5616 5617 5618 5619 5620 5621 5623 5624 5625 5626 5628 5628 5628 5628 5629 5629 5629 5629 5628 5628 5627 5626 5626 5625 5625 5624 5624 5624 5624 5625 5626 5627 5628 5630 5632 5633 5634 5634 5634 5634 5633 5633 5632
5607 5607 5609 5610 5611 5613 5614 5615 5616 5617 5618 5619 5620 5621 5621 5622 5622 5621 5621 5621 5620 5619 5618 5618 5618 5617 5617 5617 5618 5618 5619 5620 5621 5623 5624 5625 5626 5626 5625 5624 5624 5624 5623
5598 5599 5600 5602 5603 5604 5605 5606 5607 5608 5610 5611 5612 5613 5613 5614 5614 5613 5613 5613 5613 5612 5611 5610 5610 5610 5610 5611 5611 5612 5612 5613 5614 5615 5616 5616 5617 5616 5615 5615 5615 5614 5613
5589 5590 5592 5593 5594 5595 5597 5598 5599 5600 5601 5602 5603 5604 5604 5604 5605 5605 5605 5606 5605 5605 5604 5603 5603 5603 5603 5604 5604 5604 5605 5606 5606 5607 5607 5607 5607 5607 5607 5606 5606 5604 5603
5580 5582 5583 5584 5585 5587 5588 5590 5591 5592 5592 5593 5594 5595 5595 5596 5596 5596 5597 5597 5597 5597 5596 5596 5596 5596 5596 5596 5597 5597 5598 5598 5598 5598 5597 5597 5597 5597 5597 5597 5596 5595 5593
Wind_Speed
62 68 58 52 50 47 47 45 42 39 40 38 36 36 38 39 39 38 36 35 33 33 33 33 33 33 33 33 33 33 33 34 35 36 37 37 41 43 41 43 46 44 41
51 61 65 54 51 49 46 44 41 40 38 37 37 37 36 39 41 39 37 35 35 36 35 35 36 36 36 35 36 36 36 37 38 41 41 39 42 43 45 47 44 40 38
44 50 63 61 52 50 49 47 45 39 40 41 37 37 40 40 40 41 38 36 36 37 38 38 37 38 39 39 39 40 40 40 41 43 45 45 47 45 46 46 43 40 39
47 46 47 58 65 54 46 47 46 44 44 42 39 38 40 41 40 42 39 39 36 38 39 39 40 40 40 41 42 43 44 46 46 47 48 46 48 47 47 44 41 40 41
46 51 44 50 52 59 55 48 46 47 47 46 44 43 39 38 37 38 37 35 40 42 43 43 43 43 43 44 46 48 51 51 51 51 49 48 48 47 45 42 40 41 43
38 48 47 46 49 49 51 53 55 49 48 47 45 44 45 45 44 44 45 45 45 46 46 47 48 49 51 51 51 53 54 52 53 52 50 49 48 45 42 42 41 41 46
42 40 45 47 47 47 49 49 51 55 53 48 46 46 47 48 49 50 50 50 50 51 53 53 52 53 54 54 53 53 54 53 52 51 50 49 46 43 42 40 41 42 45
48 46 46 41 48 52 50 50 45 47 51 55 54 53 54 55 55 56 54 56 56 56 57 56 55 54 53 53 53 54 53 52 51 50 47 44 43 43 41 42 43 46 47
38 46 52 46 39 50 48 51 55 49 51 50 49 50 51 52 56 56 56 59 60 59 58 57 56 54 52 53 53 52 52 51 48 46 43 42 41 41 41 44 45 47 44
32 36 42 44 33 40 45 54 60 58 57 56 55 59 59 52 51 52 53 53 52 50 50 49 49 51 51 52 52 51 49 47 43 42 41 41 40 41 42 44 47 44 41
19 27 38 40 42 39 43 49 42 54 60 57 58 58 56 56 53 55 56 51 50 50 49 50 50 50 51 51 49 48 45 43 42 42 41 41 41 43 44 46 45 41 37
17 18 23 30 36 40 42 42 48 45 46 52 51 55 57 56 51 54 54 55 54 55 54 52 51 51 51 51 50 47 44 43 43 43 41 41 43 44 45 44 41 37 34
21 19 17 20 23 29 37 43 48 50 49 53 56 51 56 65 62 55 61 64 59 57 54 54 55 54 50 49 48 46 47 44 44 43 41 42 44 43 42 40 36 34 34
26 22 20 20 20 22 26 31 35 39 44 49 52 54 55 49 48 50 53 53 55 55 55 54 52 50 49 48 48 46 44 44 43 42 43 44 42 44 43 36 33 33 30
31 26 22 20 22 22 23 24 27 31 35 39 41 40 41 43 43 42 42 42 44 46 47 48 47 48 49 49 46 44 43 42 44 47 45 44 44 37 35 32 32 30 29
33 28 28 27 23 25 27 25 25 29 34 36 38 39 37 35 35 37 38 41 43 44 45 46 46 45 45 45 43 43 40 41 45 46 43 37 35 34 34 31 28 28 29
36 36 32 33 32 30 32 29 28 31 33 36 37 37 37 37 36 36 37 39 40 42 43 43 42 41 42 43 42 40 38 40 39 39 38 34 34 29 28 30 28 27 27
38 36 34 35 34 35 34 30 29 30 32 33 33 34 35 36 37 38 40 42 43 41 40 41 41 41 41 41 42 40 41 41 41 33 33 34 27 29 28 27 27 27 27
38 39 38 38 39 37 32 30 31 31 30 32 35 34 36 37 38 40 40 40 40 40 36 34 34 36 38 41 42 46 45 30 30 32 28 27 28 27 26 27 27 27 27
34 37 39 39 38 36 36 33 31 30 31 32 29 28 29 30 30 31 30 32 32 34 30 28 30 32 33 30 28 26 27 28 27 27 29 28 27 27 27 27 27 26 27
31 34 35 36 36 36 37 35 29 29 28 25 27 28 26 26 24 25 25 22 24 29 30 32 34 33 29 27 25 25 26 27 27 27 27 27 27 28 28 28 28 29 29
30 34 34 31 27 29 29 27 26 28 29 29 28 29 29 26 24 25 24 26 25 25 23 24 25 25 26 26 26 26 26 25 24 25 26 27 28 29 29 30 30 30 30
30 30 31 30 29 29 28 28 30 32 33 32 31 29 29 28 27 27 27 26 25 22 23 25 27 27 25 23 23 23 22 22 23 24 26 28 29 29 30 30 30 31 29
29 30 31 32 31 31 31 32 34 35 36 35 32 30 29 28 29 27 26 24 25 23 21 22 23 25 26 25 24 24 24 24 25 26 27 28 29 29 29 31 31 30 29
29 28 28 29 30 31 31 32 32 33 33 33 32 31 30 29 28 25 26 26 25 26 26 23 25 25 26 26 25 26 26 27 28 29 30 30 30 31 30 31 32 30 31
28 28 28 28 28 29 29 30 31 32 32 31 31 31 31 30 28 31 30 30 30 27 26 25 23 24 28 25 25 27 27 28 29 30 31 31 31 30 31 32 34 33 34
Wind_Direction
236 227 227 234 234 235 239 244 245 246 245 247 245 245 245 248 251 253 255 259 263 267 273 277 282 285 288 290 292 294 296 298 301 305 306 306 310 313 308 309 310 308 307
233 234 227 229 235 236 238 241 243 243 245 247 244 246 251 252 254 256 258 262 267 269 273 277 281 283 287 290 293 294 296 299 302 304 304 302 308 308 306 309 309 306 303
234 233 234 228 231 236 238 241 243 245 245 248 252 252 252 254 254 253 256 260 266 271 274 277 279 283 287 290 291 293 295 298 300 301 304 304 305 305 305 306 305 302 301
240 236 235 239 232 234 238 241 244 243 244 248 249 255 258 259 266 266 258 255 266 272 273 275 279 282 285 288 290 292 296 299 301 302 301 300 303 304 305 305 301 300 300
240 238 234 242 240 240 237 235 243 247 247 247 250 253 257 257 261 268 271 266 265 271 276 277 279 282 285 288 290 294 297 298 297 298 297 300 301 301 302 301 300 301 303
244 241 237 236 240 245 246 245 238 242 247 250 250 251 254 257 261 261 262 264 266 269 271 274 279 282 283 285 288 290 291 291 294 294 297 297 297 298 297 297 298 301 302
242 243 243 239 241 243 246 248 246 244 243 245 249 252 254 256 258 260 264 265 268 270 272 275 277 277 280 284 286 285 287 290 290 293 294 294 295 294 294 293 296 298 299
242 242 247 244 240 241 246 246 246 250 250 247 249 253 257 257 259 263 264 266 266 268 273 276 277 278 280 280 280 284 285 287 290 291 292 291 290 290 290 293 296 300 299
243 242 243 246 246 242 244 244 246 249 251 253 257 259 260 263 264 264 265 266 267 269 270 271 272 274 275 278 280 282 285 287 288 290 291 290 288 288 290 292 296 297 298
245 238 244 243 241 240 243 249 244 247 251 252 257 264 265 262 262 265 268 266 266 268 269 269 272 275 277 278 281 282 283 286 287 288 289 287 287 287 289 293 295 294 293
257 248 239 237 242 241 242 247 249 246 250 253 258 257 258 261 261 265 265 265 265 268 268 271 273 275 279 280 280 282 285 287 287 287 287 286 285 286 288 292 291 291 291
263 262 261 248 238 234 239 246 249 255 255 254 256 259 263 262 265 266 266 267 269 268 268 271 272 275 277 279 282 285 287 286 285 284 283 283 283 285 289 289 288 287 288
260 260 256 254 251 247 246 242 241 247 251 254 258 260 263 260 265 266 268 266 265 265 267 268 273 276 277 279 281 282 283 282 283 280 278 280 282 285 286 286 284 286 288
265 267 257 258 258 253 251 253 255 256 260 259 254 252 254 257 259 261 262 263 265 266 267 269 271 275 277 277 280 279 279 278 275 276 276 278 278 282 285 281 284 286 288
266 268 270 261 259 262 261 262 263 264 266 268 270 271 271 271 271 270 269 270 272 273 273 272 274 275 275 276 274 273 272 272 272 275 274 277 284 280 280 283 281 281 284
269 264 270 274 268 261 265 270 274 272 267 266 267 270 271 268 268 270 273 274 274 272 272 272 271 271 272 269 269 269 267 270 271 271 274 279 280 281 278 277 276 278 282
263 263 262 268 269 268 264 268 276 278 273 263 263 265 266 268 270 272 273 274 275 276 275 274 272 274 273 272 272 268 265 265 273 276 278 275 275 273 272 272 274 278 280
265 263 258 260 268 263 265 267 276 273 270 266 265 266 267 266 267 268 271 274 275 276 274 273 273 277 277 272 268 263 263 272 281 273 273 270 264 269 266 271 274 277 280
258 259 254 257 261 261 264 267 274 264 267 267 265 266 267 267 268 269 270 274 275 275 274 272 272 276 275 270 265 265 272 268 271 270 264 261 265 265 267 269 274 276 280
259 255 256 257 256 262 264 268 267 268 268 271 263 264 270 271 268 274 275 273 274 271 273 276 275 279 276 269 265 260 266 265 261 256 263 262 262 264 266 269 273 278 282
262 261 261 262 263 265 264 261 260 256 263 269 263 264 270 269 271 276 278 283 287 281 275 272 276 276 273 266 264 261 258 257 261 262 261 262 264 264 265 269 273 278 282
267 262 260 256 256 256 255 254 254 259 266 270 272 268 266 271 271 272 274 282 282 280 282 280 277 275 269 267 262 262 263 260 258 259 262 264 265 267 268 271 275 278 282
262 261 264 259 257 255 256 259 259 260 263 267 271 270 267 267 268 271 278 276 282 280 275 277 282 276 268 264 262 259 256 257 259 261 263 266 269 270 271 274 276 279 282
259 262 262 262 262 262 261 262 261 260 263 266 267 267 265 267 271 274 272 281 282 281 279 283 284 280 275 268 263 260 259 260 261 262 264 267 270 272 275 276 276 278 283
257 257 258 260 260 260 260 260 262 263 263 262 261 262 264 265 267 270 272 275 276 280 281 280 276 274 275 274 270 267 267 266 267 267 266 268 271 277 276 276 277 278 281
258 256 255 256 257 258 258 258 259 261 260 260 261 261 263 267 265 266 271 273 277 277 274 275 275 271 265 263 269 274 274 273 273 272 272 270 270 274 275 277 277 278 281